Preview of NWS' New Version of Forecast
This preview is not operational and should not be used for support decisions.

Regional Weather Roundup (RWR)

Issued by National Weather Service (NWS)

                            
000
ASUS44 KMEG 182010
RWRTN 
TENNESSEE HOURLY STATE WEATHER ROUNDUP
NATIONAL WEATHER SERVICE MEMPHIS TN
200 PM CST MON FEB 18 2019

TNZ002-004-019-021-049-052-054-088>092-182100-
WEST TENNESSEE
  
CITY           SKY/WX    TMP DP  RH WIND       PRES   REMARKS
MEMPHIS INTL   CLOUDY    42  27  55 N14       30.35F                  
NWS MEMPHIS      N/A     41 N/A N/A MISG        N/A                   
JACKSON        FAIR      40  26  57 N12       30.40R WCI  33          
DYERSBURG      FAIR      38  25  59 N9        30.42S WCI  31          
COVINGTON      SUNNY     39  28  65 N10       30.40R WCI  32          
UNION CITY     SUNNY     37  25  60 NW8G16    30.40S WCI  31          
PARIS          MOSUNNY   39  25  56 N8        30.38S WCI  34          
SELMER         SUNNY     41  25  52 N10G18    30.33S                  
SAVANNAH       SUNNY     43  28  56 N14       30.34S                  
$$

TNZ008-025-027-028-033-062-065-066-182100-
NORTH MIDDLE TENNESSEE
  
CITY           SKY/WX    TMP DP  RH WIND       PRES   REMARKS
NASHVILLE      PTSUNNY   41  24  51 N8        30.37R                  
DICKSON        CLEAR     39  23  52 NW12      30.34S WCI  32          
CLARKSVILLE    FAIR      37  22  54 N10       30.39S WCI  30          
LEBANON        PTCLDY    39  27  60 N14       30.35S WCI  31          
SMYRNA         FAIR      40  28  62 N12       30.37F WCI  33          
MURFREESBORO   CLEAR     41  27  56 N13       30.33F                  
COOKEVILLE     MOSUNNY   41  27  56 NW7G14    30.31S                  
LIVINGSTON     MOCLDY    36  27  69 NW12      30.30S WCI  27          
GALLATIN       MOCLDY    37  25  60 NW8       30.40S WCI  31          
CROSSVILLE     FAIR      40  26  57 NW10      30.26R WCI  33          
ROCKWOOD       CLEAR     45  28  53 VRB5G12   30.24S                  
$$

TNZ061-075-076-078-094-096-097-182100-
SOUTH MIDDLE TENNESSEE
  
CITY           SKY/WX    TMP DP  RH WIND       PRES   REMARKS
LAWRENCEBURG   CLEAR     43  30  61 N14       30.30S                  
LEWISBURG      CLEAR     43  28  56 N8G20     30.32R                  
FAYETTEVILLE   SUNNY     43  32  65 N12       30.28F                  
TULLAHOMA      SUNNY     41  32  70 NW10      30.30R                  
WINCHESTER     SUNNY     43  30  61 N9G15     30.30R                  
MCMINNVILLE    SUNNY     43  30  61 N7        30.30S                  
COLUMBIA       SUNNY     43  27  52 NW9       30.32S                  
SHELBYVILLE    MOSUNNY   43  32  65 N10G17    30.32S                  
$$

TNZ017-018-042-046-047-182100-
NORTHEAST TENNESSEE
  
CITY           SKY/WX    TMP DP  RH WIND       PRES   REMARKS
TRI CITIES     FAIR      47  33  58 SW13      30.19S                  
ELIZABETHTON   FAIR      48  32  53 W12G18    30.18S                  
GREENEVILLE    PTCLDY    46  32  57 SW12G17   30.21R                  
$$

TNZ012-013-036-069-073-074-182100-
CENTRAL EAST TENNESSEE
  
CITY           SKY/WX    TMP DP  RH WIND       PRES   REMARKS
KNOXVILLE      PTSUNNY   48  27  44 W13       30.25R                  
OAK RIDGE      FAIR      50  31  48 VRB7      30.26S                  
DOWNTOWN KNOXV SUNNY     48  32  53 W8G15     30.26S                  
GATLINBURG     SUNNY     52  30  43 VRB7G15   30.24R                  
MORRISTOWN     SUNNY     48  34  57 W10G17    30.22R                  
JACKSBORO      SUNNY     46  27  46 VRB7      30.29S                  
$$

TNZ083-085-099-182100-
SOUTHEAST TENNESSEE
  
CITY           SKY/WX    TMP DP  RH WIND       PRES   REMARKS
CHATTANOOGA    PTSUNNY   51  30  44 N3        30.25F                  
DAYTON         CLEAR     48  28  46 NW6G13    30.27S                  
$$

SKY/WX REPORTED AS FAIR MEANS FEW OR NO CLOUDS BELOW
12 THOUSAND FEET.